Location: NovaLab Observatory
(42.8167°N, 71.2500°W)
Time: 10:54:40
(UTC-04:00)

Daily predictions for brighter satellites

Satellite Brightness Start Highest point End
(mag) Time Altitude Azimuth Time Altitude Azimuth Time Altitude Azimuth
Cosmos 1300 3.0 19:55:14 10° SSW 19:59:03 74° W 20:02:53 10° N
Cosmos 2360 Rocket 2.8 19:55:00 10° SW 20:00:35 64° WNW 20:06:12 10° NNE
Cosmos 1346 Rocket 3.9 19:59:13 10° SSW 20:03:13 53° WNW 20:07:15 10° N
NOSS 2-1 (E) 3.3 20:01:05 10° SSW 20:04:36 52° ESE 20:08:30 10° NE
OAO 2 Rocket 4.4 20:00:46 10° WSW 20:05:26 33° S 20:10:01 10° ESE
Cosmos 2333 Rocket 2.7 20:04:48 10° S 20:09:58 38° ESE 20:15:09 10° NE
Cosmos 1633 Rocket 3.5 20:05:52 10° N 20:10:01 42° ENE 20:14:09 10° SSE
Meteor 2-2 Rocket 4.5 20:07:02 10° S 20:12:41 55° E 20:18:30 10° NNE
COSMOS 2428 2.7 20:09:23 10° SSW 20:15:05 72° ESE 20:20:48 10° NNE
CZ-2D R/B 3.6 20:13:02 10° S 20:16:48 66° W 20:20:36 10° NNW
NOSS 3-3 (A) 4.1 20:11:40 10° SSW 20:17:28 53° ESE 20:23:48 10° NE
Cosmos 2333 4.2 20:11:55 10° SSW 20:17:34 78° ESE 20:23:12 10° NNE
NOSS 3-3 (C) 4.1 20:11:47 10° SSW 20:17:34 52° ESE 20:23:54 10° NE
Cosmos 1844 Rocket 2.7 20:12:10 10° NNW 20:17:53 87° ENE 20:23:33 10° SSE
Cosmos 2228 Rocket 4.1 20:17:06 10° SE 20:20:44 26° E 20:24:22 10° NNE
Cosmos 1844 3.7 20:15:31 10° NNW 20:21:14 73° ENE 20:26:58 10° SSE
Cosmos 2221 4.0 20:17:31 10° SSW 20:21:32 40° WNW 20:25:35 10° N
Cosmos 1455 2.6 20:19:25 10° SSE 20:23:00 41° E 20:26:39 10° NNE
Cosmos 1408 4.0 20:22:27 10° NNE 20:25:19 21° ENE 20:27:16 14° ESE
ERS-2 2.4 20:22:06 10° S 20:25:44 69° WSW 20:29:25 10° NNW
Cosmos 2219 Rocket 2.2 20:23:11 10° S 20:28:46 64° ESE 20:34:21 10° NNE
Cosmos 1892 2.7 20:24:57 10° N 20:28:51 77° E 20:32:43 10° SSE
Cosmos 2237 Rocket 2.9 20:24:28 10° SSE 20:29:21 31° ESE 20:34:15 10° NE
SL-8 R/B 4.4 20:25:19 10° SSW 20:29:33 32° SE 20:33:49 10° ENE
H-2A R/B 3.6 20:27:13 12° E 20:30:06 19° ENE 20:33:30 10° NNE
Cosmos 2154 Rocket 4.0 20:25:19 10° S 20:31:35 86° E 20:37:51 10° N
Cosmos 1805 Rocket 4.5 20:30:02 10° NNW 20:34:14 49° W 20:38:24 10° SSW
Cosmos 2278 Rocket 2.7 20:32:08 10° NNW 20:37:35 44° ENE 20:41:43 17° SE
CZ-3B R/B 3.5 20:36:32 10° NNW 20:37:45 18° NE 20:38:09 17° NE
Cosmos 1328 Rocket 3.5 20:36:51 10° S 20:41:12 64° E 20:45:36 10° NNE
YAOGAN 6 3.0 20:39:16 10° S 20:42:49 62° W 20:46:27 10° NNW
Genesis I 3.5 20:38:55 10° NNW 20:42:57 56° NE 20:45:30 21° SE
Cosmos 2251 Rocket 4.1 20:38:36 10° NNW 20:43:54 60° WSW 20:49:09 10° S
Resurs 01 Rocket 1.7 20:39:32 10° SSE 20:43:59 83° WSW 20:48:27 10° NNW
NOAA 11 4.2 20:38:47 10° SSE 20:44:12 65° ENE 20:49:40 10° N
SAR-Lupe-3 4.4 20:44:23 10° NNE 20:48:00 76° ESE 20:51:35 10° S
Envisat 4.4 20:43:39 10° SSW 20:48:23 39° W 20:53:09 10° NNW
Cosmos 1470 Rocket 3.6 20:47:46 10° N 20:52:09 64° E 20:55:28 17° SSE
Cosmos 2341 Rocket 4.0 20:46:58 10° S 20:53:21 85° E 20:59:42 10° N
ATLAS CENTAUR R/B 0.9 20:52:28 10° SSW 20:56:06 76° ESE 20:59:56 10° NE
Cosmos 2056 Rocket 4.3 20:55:34 19° SE 20:58:24 30° E 21:03:04 10° NE
Cosmos 2218 Rocket 4.2 20:53:41 10° SSE 20:59:48 53° E 21:06:00 10° NNE
Cosmos 2098 Rocket 3.7 20:58:56 23° SE 21:01:11 36° E 21:04:50 10° NNE
Aureole 2 4.0 21:02:24 10° SSW 21:05:27 85° WNW 21:08:24 10° NNE
NOSS 0 Rocket 3.8 21:01:46 10° SSW 21:07:55 80° ESE 21:14:09 10° NNE
Cosmos 1825 2.1 21:06:26 10° N 21:10:13 67° E 21:11:38 36° SSE
Cosmos 2366 rocket 4.0 21:06:59 12° S 21:12:45 60° E 21:18:54 10° NNE
BREEZE-M DEB (TANK) 4.1 21:11:58 10° WNW 21:14:01 22° NNW 21:15:23 14° NE
Cosmos 405 4.0 21:11:07 10° N 21:14:09 30° ENE 21:14:09 30° ENE
Cosmos 1624 Rocket 4.3 21:12:37 22° SSE 21:15:30 43° ESE 21:20:25 10° NNE
SL-16 R/B 2.8 21:17:50 31° ESE 21:18:42 32° ESE 21:23:41 10° NE
Cosmos 1933 Rocket 3.6 21:16:28 10° NNW 21:20:52 75° W 21:23:24 24° S
Meteor 2-3 Rocket 4.5 21:15:59 10° NNW 21:21:23 51° W 21:26:49 10° SSW
SL-8 Rocket 4.0 21:16:08 10° S 21:22:26 87° W 21:28:46 10° N
GEOS 3 Rocket 3.9 21:20:23 10° NE 21:25:29 44° ESE 21:30:28 10° SSW
Terra 3.6 21:26:13 17° ENE 21:26:37 17° ENE 21:29:36 10° NNE
ARGOS 3.1 21:25:39 31° SSE 21:28:16 78° ENE 21:33:39 10° N
Cosmos 1869 3.2 21:27:19 34° S 21:29:01 86° E 21:33:04 10° N
Cosmos 1339 Rocket 4.4 21:23:18 10° N 21:29:24 73° E 21:32:31 31° SSE
Cosmos 1151 Rocket 3.6 21:25:27 10° SSW 21:29:37 56° W 21:33:51 10° N
ATLAS 2AS CENTAUR R/B 3.3 21:22:52 10° NW 21:30:37 61° WSW 21:35:15 24° S
MetOp-B 4.1 21:30:49 36° SSE 21:33:06 76° ENE 21:38:28 10° N
Lacrosse 5 4.1 21:35:34 10° NNW 21:39:08 19° NNE 21:42:40 10° ENE
BREEZE-M DEB (TANK) 3.7 21:34:37 10° WNW 21:39:44 29° NNW 21:41:03 20° NNE
SPOT 5 3.2 21:40:05 41° E 21:40:25 41° ENE 21:44:39 10° N
Cosmos 1869 Rocket 3.6 21:38:44 10° N 21:43:04 57° E 21:43:13 57° E
Helios 1B rocket 3.9 21:41:17 10° NNE 21:43:24 24° NE 21:43:24 24° NE
Cosmos 1980 4.2 21:39:51 10° SW 21:45:27 59° WNW 21:51:06 10° NNE
Cosmos 2297 3.8 21:43:12 10° NNW 21:48:50 64° ENE 21:50:11 49° ESE
Meteor 2-10 Rocket 3.7 21:46:07 24° S 21:49:45 87° W 21:55:37 10° N
DMSP B5D2-2 4.2 21:45:31 10° NNE 21:50:38 50° E 21:50:48 50° ESE
Cosmos 2333 Rocket 3.9 21:49:09 10° WSW 21:54:15 34° NW 21:59:23 10° N
Cosmos 2369 Rocket 3.9 21:53:13 10° N 21:57:12 19° NE 21:58:28 18° ENE
Cosmos 1441 Rocket 4.0 21:59:48 43° NNE 21:59:48 43° NNE 22:02:26 10° NNE
Helios 1A 2.9 21:59:12 79° NE 21:59:12 79° NE 22:03:17 10° N
SPOT 1/Viking Rocket 3.5 22:00:11 60° ESE 22:00:46 64° ENE 22:05:57 10° N
NOSS 3-4 (A) 3.8 21:54:02 10° NW 22:01:06 80° NE 22:03:34 46° SE
NOSS 3-4 (C) 3.8 21:54:09 10° NW 22:01:12 79° NE 22:03:40 46° SE
USA 81 4.0 21:55:59 10° N 22:01:17 79° W 22:02:39 51° SSW
H-2A R/B 2.4 22:07:50 44° SSW 22:09:07 57° W 22:14:02 10° NNW
SL-19 R/B 4.2 22:08:29 62° ESE 22:09:12 69° ENE 22:14:46 10° NNW
Cosmos 1934 Rocket 4.5 22:10:17 40° E 22:10:17 40° E 22:15:32 10° NNE
Cosmos 407 Rocket 3.5 22:05:24 10° NNW 22:10:30 70° WSW 22:11:08 62° SSW
USA 267 3.1 22:04:35 10° NE 22:11:06 66° SE 22:17:35 10° SW
ERS-1 Rocket 3.3 22:10:13 49° SSW 22:11:16 60° W 22:16:15 10° NNW
SL-8 R/B 3.8 22:07:04 10° WSW 22:11:51 72° NNW 22:12:50 54° NE
Cosmos 2237 Rocket 3.5 22:08:02 10° SW 22:13:16 39° WNW 22:18:32 10° N
Cosmos 1862 3.8 22:10:30 10° NNW 22:14:04 58° WNW 22:14:04 58° WNW
Cosmos 614 Rocket 3.9 22:09:43 10° NNW 22:14:57 68° ENE 22:14:58 68° ENE
CZ-2C R/B 4.5 22:14:45 10° NE 22:16:38 17° ENE 22:16:38 17° ENE
Cosmos 2278 Rocket 3.8 22:16:41 10° NW 22:21:24 28° WSW 22:23:35 22° SW
Cosmos 1437 Rocket 4.5 22:20:12 10° N 22:22:10 26° NNE 22:22:10 26° NNE
IGS 5A 4.5 22:28:29 41° N 22:28:29 41° N 22:31:21 10° N
Cosmos 405 Rocket 4.0 22:28:05 40° NW 22:28:05 40° NW 22:31:03 10° N
Cosmos 1000 Rocket 4.3 22:22:23 10° N 22:28:37 90° WNW 22:29:25 70° S
Cosmos 676 Rocket 4.0 22:24:09 10° NNW 22:29:19 77° W 22:29:19 77° W
ATLAS 5 CENTAUR R/B 3.7 22:24:40 10° NNW 22:29:38 28° NE 22:31:07 25° ENE
Cosmos 1821 Rocket 3.9 22:33:04 70° S 22:33:53 88° E 22:40:14 10° N
ATLAS CENTAUR R/B 4.4 22:33:41 10° WNW 22:35:37 13° NW 22:37:35 10° N
Cosmos 1452 Rocket 3.7 22:42:01 64° NNE 22:42:01 64° NNE 22:46:28 10° NNE
USA 234 3.8 22:43:06 40° ENE 22:44:56 51° NNE 22:51:14 10° NW
Landsat 7 4.4 22:46:49 53° WNW 22:46:49 53° WNW 22:50:52 10° NNW
Cosmos 2123 Rocket 3.9 22:43:45 10° N 22:49:58 77° ENE 22:49:58 77° ENE
SL-16 R/B 3.4 22:59:33 21° WSW 23:02:42 38° WNW 23:07:59 10° N
Cosmos 2344 3.6 22:58:41 28° SW 23:03:09 80° NW 23:11:40 10° NE
Terra 2.8 23:05:06 44° NW 23:05:06 44° NW 23:08:35 10° NNW
CZ-4C R/B 3.1 23:13:19 40° NE 23:13:19 40° NE 23:17:09 10° NE
SeaSat 1 4.4 23:12:26 21° NE 23:12:26 21° NE 23:15:42 10° N
CZ-2C R/B 3.9 23:14:25 42° NNW 23:14:25 42° NNW 23:17:36 10° NNW
Cosmos 1943 Rocket 3.0 23:09:04 10° NNW 23:13:21 42° NNE 23:13:21 42° NNE
Lacrosse 5 3.1 23:18:18 10° NW 23:21:58 38° N 23:21:58 38° N
Cosmos 1605 Rocket 4.1 23:24:41 72° NNW 23:24:41 72° NNW 23:30:31 10° N
Cosmos 1603 4.4 23:30:41 50° N 23:30:41 50° N 23:34:56 10° NNE
Cosmos 1943 4.4 23:36:34 36° NNE 23:36:34 36° NNE 23:39:51 10° NNE
Cosmos 2369 Rocket 3.0 23:36:12 10° NNW 23:40:15 48° NW 23:40:15 48° NW
Mayak 1.6 23:46:56 10° NNE 23:47:28 13° NNE 23:47:28 13° NNE
